Miscellaneous Local Product
Issued by NWS Hastings, NE

Home | Current Version | Previous Version | Graphics & Text | Print | Product List | Glossary On
Versions: 1 2 3 4 5 6 7 8 9 10 11 12 13 14 15 16 17 18 19 20 21 22 23 24 25 26 27 28 29 30 31 32 33 34 35 36 37 38 39 40 41 42 43 44 45 46 47 48 49 50
506
AXUS43 KGID 051102
MISGRI

GID CWA HOURLY WEATHER ROUNDUP
NATIONAL WEATHER SERVICE HASTINGS NE
500 AM CST FRI FEB 05 2016

NOTE: "FAIR" INDICATES FEW OR NO CLOUDS BELOW 12,000 FEET WITH NO
SIGNIFICANT WEATHER AND/OR OBSTRUCTIONS TO VISIBILITY.

...SOUTH CENTRAL NEBRASKA...

CITY           SKY/WX    TMP DP  RH WIND       PRES   REMARKS
GRAND ISLAND   LGT SNOW  24  19  81 S14       30.26F WCI  12
HASTINGS       LGT SNOW  22  15  75 S7        30.27S WCI  13
ORD            CLOUDY    24  20  84 CALM      30.19F
YORK           CLOUDY    19  16  86 S7        30.29S WCI  10
AURORA         CLOUDY    23  17  80 S12       30.27S WCI  11
LEXINGTON      LGT SNOW  30  27  90 W9        30.22F WCI  22
HOLDREGE       LGT SNOW  22  20  90 SW7       30.24F WCI  14
HEBRON         CLOUDY    16  13  90 CALM      30.33S

...NEBRASKA PANHANDLE...

CITY           SKY/WX    TMP DP  RH WIND       PRES   REMARKS
CHADRON        MOCLDY    27  18  69 W17       30.18R WCI  14
ALLIANCE       CLOUDY    24  18  77 W10       30.16R WCI  14
SCOTTSBLUFF    CLOUDY    25  16  68 W12       30.22R WCI  14
SIDNEY         CLOUDY    26  19  74 NW14      30.20R WCI  14

...WESTERN AND NORTH CENTRAL NEBRASKA...

CITY           SKY/WX    TMP DP  RH WIND       PRES   REMARKS
VALENTINE      CLOUDY    27  23  85 SW5       30.13R WCI  22
AINSWORTH      CLOUDY    30  26  83 SW7       30.13R WCI  23
ONEILL         CLOUDY    24  17  74 S9        30.16F WCI  14
BROKEN BOW     LGT SNOW  28  27  96 W8        30.18S FOG     WCI  20
IMPERIAL       FLURRIES  29  26  89 W12       30.22S WCI  19
NORTH PLATTE   LGT SNOW  31  28  89 W14       30.20S FOG     WCI  21
MCCOOK         CLOUDY    25  21  85 SW5       30.24S WCI  19

...EASTERN NEBRASKA...

CITY           SKY/WX    TMP DP  RH WIND       PRES   REMARKS
NORFOLK        CLOUDY    20  15  81 S10       30.25R WCI   9
SO SIOUX CITY  CLOUDY     7   3  84 SE8       30.30S WCI  -6
TEKAMAH        FOG        8   6  92 S6        30.33S VSB 1/4 WCI  -2
COLUMBUS       CLOUDY    16   3  57 CALM      30.29S
ALBION         CLOUDY    23  16  74 S10       30.24S WCI  12
OMAHA EPPLEY   CLOUDY    19  16  88 S5        30.34S WCI  12
OFFUTT AFB     CLOUDY    16  14  94 CALM      30.34S
MILLARD        CLOUDY    17  15  90 CALM      30.34S
LINCOLN        PTCLDY    14   9  80 CALM      30.35R
NEBRASKA CITY  CLOUDY    19  17  89 CALM      30.34S
BEATRICE       CLOUDY    18  16  90 CALM      30.34R
FALLS CITY     CLOUDY    22  19  89 CALM      30.36R

...NORTHERN KANSAS...

CITY           SKY/WX    TMP DP  RH WIND       PRES   REMARKS
GOODLAND       CLOUDY    24  15  68 W10       30.23S WCI  14
HILL CITY      CLOUDY    24  16  71 W7        30.30R WCI  16
NORTON         CLOUDY    23  16  74 SW6       30.26S WCI  16
PHILLIPSBURG   CLOUDY    21  18  86 CALM      30.30
SMITH CENTER   CLOUDY    18  16  93 CALM      30.32R
BELOIT         CLEAR     19  18  93 W3        30.34R
HAYS           CLOUDY    19   9  63 NW5       30.30S WCI  13
RUSSELL        CLOUDY    19  15  84 N3        30.30R
CONCORDIA      CLOUDY    20  16  84 CALM      30.33S
SALINA         CLOUDY    24  18  77 SW3       30.35R
TOPEKA         CLOUDY    25  19  78 CALM      30.37S



USA.gov is the U.S. government's official web portal to all federal, state and local government web resources and services.